Zephyrhills, FL

9:54 PM EDT on March 30, 2017 (GMT -0400)
Zephyrhills Municipal

Weather History for KZPH - July, 2014

Change the Weather History Date:

Thursday, July 3, 2014

  Actual Average (KPCM) Record (KPCM)
Temperature  
Mean Temperature 79 °F -  
Max Temperature 89 °F 92 °F 96 °F (1970)
Min Temperature 69 °F 71 °F 65 °F (1938)
Cooling Degree Days 14    
Growing Degree Days 29 (Base 50)    
Moisture  
Dew Point 72 °F    
Average Humidity 88    
Maximum Humidity 100    
Minimum Humidity 52    
Precipitation  
Precipitation 0.89 in - - ()
Sea Level Pressure  
Sea Level Pressure 30.03 in    
Wind  
Wind Speed 3 mph (SW)    
Max Wind Speed 20 mph    
Max Gust Speed 28 mph    
Visibility 9 miles    
Events Rain , Thunderstorm    
Averages and records for this station are not official NWS values.
T = Trace of Precipitation, MM = Missing Value Source: NWS Daily Summary

Daily Weather History Graph

Daily Weather History Graph

Search for Another Location

Airport or City:

Trip Planner

Search our weather history database for the weather conditions in past years. The results will help you decide how hot, cold, wet, or windy it might be!

Date:

Astronomy

Jul. 03, 2014 Rise Set
Actual Time 6:36 AM EDT 8:29 PM EDT
Civil Twilight 6:09 AM EDT 8:56 PM EDT
Nautical Twilight 5:37 AM EDT 9:28 PM EDT
Astronomical Twilight 5:03 AM EDT 10:02 PM EDT
Moon 12:03 PM EDT (7/3) No Moon Set
Length of Visible Light 14h 46m
Length of Day
13h 53m
Waxing Crescent, 33% of the Moon is Illuminated
Jul 3
Waxing Crescent
Jul 5
First Quarter
Jul 12
Full
Jul 18
Last Quarter
Jul 26
New

Hourly Weather History & Observations

Time (EDT) Temp. Heat Index Dew Point Humidity Pressure Visibility Wind Dir Wind Speed Gust Speed Precip Events Conditions
12:15 AM 71.6 °F - 71.6 °F 100% 29.97 in 10.0 mi SSW 3.5 mph - N/A   Mostly Cloudy
12:35 AM 71.6 °F - 71.6 °F 100% 29.98 in 10.0 mi Calm Calm - N/A   Scattered Clouds
12:55 AM 71.6 °F - 71.6 °F 100% 29.98 in 10.0 mi Calm Calm - N/A   Scattered Clouds
1:15 AM 71.6 °F - 71.6 °F 100% 29.97 in 10.0 mi Calm Calm - N/A   Clear
1:35 AM 69.8 °F - 69.8 °F 100% 29.97 in 10.0 mi Calm Calm - N/A   Scattered Clouds
1:55 AM 69.8 °F - 69.8 °F 100% 29.97 in 10.0 mi WSW 3.5 mph - N/A   Scattered Clouds
2:15 AM 69.8 °F - 69.8 °F 100% 29.98 in 10.0 mi Calm Calm - N/A   Clear
2:35 AM 69.8 °F - 69.8 °F 100% 29.97 in 10.0 mi Calm Calm - N/A   Clear
2:55 AM 69.8 °F - 69.8 °F 100% 29.97 in 10.0 mi Calm Calm - N/A   Clear
3:15 AM 69.8 °F - 69.8 °F 100% 29.97 in 10.0 mi Calm Calm - N/A   Clear
3:35 AM 69.8 °F - 69.8 °F 100% 29.97 in 10.0 mi Calm Calm - N/A   Clear
3:55 AM 69.8 °F - 69.8 °F 100% 29.97 in 10.0 mi Calm Calm - N/A   Clear
4:15 AM 69.8 °F - 69.8 °F 100% 29.97 in 10.0 mi Calm Calm - N/A   Clear
4:35 AM 69.8 °F - 69.8 °F 100% 29.97 in 10.0 mi Calm Calm - N/A   Clear
4:55 AM 69.8 °F - 69.8 °F 100% 29.97 in 7.0 mi Calm Calm - N/A   Clear
5:15 AM 69.8 °F - 69.8 °F 100% 29.97 in 10.0 mi Calm Calm - N/A   Clear
5:35 AM 69.8 °F - 69.8 °F 100% 29.97 in 7.0 mi Calm Calm - N/A   Clear
5:55 AM 69.8 °F - 69.8 °F 100% 29.98 in 7.0 mi Calm Calm - N/A   Clear
6:15 AM 71.6 °F - 71.6 °F 100% 29.98 in 7.0 mi South 3.5 mph - N/A   Clear
6:35 AM 71.6 °F - 71.6 °F 100% 29.99 in 7.0 mi Calm Calm - N/A   Clear
6:55 AM 71.6 °F - 71.6 °F 100% 30.00 in 5.0 mi Calm Calm - N/A   Clear
7:15 AM 71.6 °F - 71.6 °F 100% 30.00 in 5.0 mi Calm Calm - N/A   Clear
7:35 AM 71.6 °F - 71.6 °F 100% 30.02 in 5.0 mi Calm Calm - N/A   Clear
7:55 AM 71.6 °F - 71.6 °F 100% 30.03 in 7.0 mi South 3.5 mph - N/A   Clear
8:15 AM 73.4 °F - 73.4 °F 100% 30.03 in 7.0 mi SW 3.5 mph - N/A   Scattered Clouds
8:35 AM 73.4 °F - 73.4 °F 100% 30.04 in 7.0 mi Calm Calm - N/A   Scattered Clouds
8:55 AM 77.0 °F - 77.0 °F 100% 30.04 in 10.0 mi Calm Calm - N/A   Scattered Clouds
9:15 AM 80.6 °F 88.1 °F 78.8 °F 94% 30.04 in 10.0 mi SW 6.9 mph - N/A   Clear
9:55 AM 84.2 °F 98.3 °F 80.6 °F 89% 30.04 in 10.0 mi WSW 8.1 mph - N/A   Clear
10:15 AM 84.2 °F 96.1 °F 78.8 °F 84% 30.04 in 10.0 mi WSW 5.8 mph - N/A Thunderstorm Scattered Clouds
10:35 AM 84.2 °F 96.1 °F 78.8 °F 84% 30.05 in 10.0 mi South 9.2 mph - N/A   Scattered Clouds
10:55 AM 82.4 °F 89.5 °F 75.2 °F 79% 30.05 in 10.0 mi SSW 6.9 mph - N/A   Scattered Clouds
11:15 AM 80.6 °F 87.1 °F 77.0 °F 89% 30.05 in 10.0 mi South 6.9 mph - N/A   Clear
11:35 AM 84.2 °F 94.1 °F 77.0 °F 79% 30.05 in 10.0 mi SSW 6.9 mph - N/A   Clear
11:55 AM 84.2 °F 94.1 °F 77.0 °F 79% 30.05 in 10.0 mi SSW 4.6 mph - N/A   Clear
12:15 PM 86.0 °F 96.9 °F 77.0 °F 74% 30.05 in 10.0 mi South 5.8 mph - N/A   Clear
12:35 PM 87.8 °F 99.7 °F 77.0 °F 70% 30.05 in 10.0 mi SW 10.4 mph - N/A   Clear
12:55 PM 87.8 °F 95.6 °F 73.4 °F 62% 30.04 in 10.0 mi SSW 8.1 mph - N/A   Scattered Clouds
1:15 PM 87.8 °F 93.8 °F 71.6 °F 58% 30.04 in 10.0 mi WSW 9.2 mph - N/A   Scattered Clouds
1:35 PM 87.8 °F 93.8 °F 71.6 °F 58% 30.04 in 10.0 mi WSW 9.2 mph - N/A   Scattered Clouds
1:55 PM 87.8 °F 93.8 °F 71.6 °F 58% 30.04 in 10.0 mi SSW 9.2 mph - N/A   Clear
2:15 PM 89.6 °F 96.2 °F 71.6 °F 55% 30.04 in 10.0 mi SW 12.7 mph 16.1 mph N/A   Scattered Clouds
2:35 PM 89.6 °F 94.7 °F 69.8 °F 52% 30.03 in 10.0 mi SSW 12.7 mph - N/A   Scattered Clouds
2:55 PM 87.8 °F 92.6 °F 69.8 °F 55% 30.03 in 10.0 mi SW 8.1 mph - N/A Thunderstorm Scattered Clouds
3:15 PM 84.2 °F 90.9 °F 73.4 °F 70% 30.02 in 10.0 mi NW 6.9 mph - N/A Thunderstorm Thunderstorm
3:35 PM 89.6 °F 94.7 °F 69.8 °F 52% 30.02 in 10.0 mi SW 10.4 mph 16.1 mph N/A Thunderstorm Thunderstorm
3:55 PM 89.6 °F 94.7 °F 69.8 °F 52% 30.00 in 10.0 mi SSW 13.8 mph - N/A Thunderstorm Thunderstorm
4:15 PM 87.8 °F 92.6 °F 69.8 °F 55% 30.02 in 10.0 mi SW 11.5 mph 19.6 mph N/A   Scattered Clouds
4:35 PM 86.0 °F 91.8 °F 71.6 °F 62% 30.01 in 10.0 mi SW 3.5 mph - N/A   Scattered Clouds
4:55 PM 89.6 °F 96.2 °F 71.6 °F 55% 30.01 in 10.0 mi SW 12.7 mph 17.3 mph N/A Thunderstorm Thunderstorm
5:15 PM 87.8 °F 93.8 °F 71.6 °F 58% 30.01 in 10.0 mi SW 9.2 mph - N/A Thunderstorm Scattered Clouds
5:35 PM 84.2 °F 89.6 °F 71.6 °F 66% 30.02 in 10.0 mi ENE 4.6 mph - N/A Thunderstorm Thunderstorm
5:55 PM 80.6 °F 84.6 °F 71.6 °F 74% 30.02 in 10.0 mi NNE 3.5 mph - N/A Thunderstorm Thunderstorm
6:15 PM 78.8 °F - 73.4 °F 83% 30.02 in 10.0 mi North 13.8 mph - N/A Thunderstorm Thunderstorm
6:35 PM 77.0 °F - 73.4 °F 89% 30.02 in 10.0 mi North 10.4 mph 17.3 mph N/A Rain , Thunderstorm Light Thunderstorms and Rain
6:55 PM 77.0 °F - 73.4 °F 89% 30.04 in 7.0 mi NNW 3.5 mph - 0.02 in Rain , Thunderstorm Thunderstorms and Rain
7:15 PM 73.4 °F - 73.4 °F 100% 30.05 in 1.2 mi NW 19.6 mph 27.6 mph 0.27 in Rain , Thunderstorm Heavy Thunderstorms and Rain
7:35 PM 73.4 °F - 73.4 °F 100% 30.08 in 0.8 mi Calm Calm - 0.76 in Rain , Thunderstorm Heavy Thunderstorms and Rain
7:55 PM 73.4 °F - 73.4 °F 100% 30.07 in 10.0 mi Calm Calm - 0.79 in Thunderstorm Thunderstorm
8:15 PM 73.4 °F - 73.4 °F 100% 30.07 in 10.0 mi Calm Calm - 0.01 in Rain Light Rain
8:35 PM 73.4 °F - 73.4 °F 100% 30.06 in 10.0 mi South 3.5 mph - 0.01 in Rain Light Rain
8:55 PM 73.4 °F - 73.4 °F 100% 30.07 in 10.0 mi South 4.6 mph - 0.01 in   Scattered Clouds
9:15 PM 71.6 °F - 71.6 °F 100% 30.07 in 10.0 mi South 5.8 mph - N/A Thunderstorm Clear
9:35 PM 71.6 °F - 71.6 °F 100% 30.09 in 7.0 mi SSE 3.5 mph - N/A Thunderstorm Scattered Clouds
9:55 PM 71.6 °F - 71.6 °F 100% 30.10 in 10.0 mi Calm Calm - N/A   Scattered Clouds
10:15 PM 71.6 °F - 71.6 °F 100% 30.10 in 10.0 mi Calm Calm - N/A Thunderstorm Mostly Cloudy
10:35 PM 71.6 °F - 71.6 °F 100% 30.11 in 10.0 mi South 3.5 mph - N/A   Scattered Clouds
10:55 PM 71.6 °F - 71.6 °F 100% 30.11 in 7.0 mi Calm Calm - N/A   Mostly Cloudy
11:15 PM 71.6 °F - 71.6 °F 100% 30.12 in 5.0 mi SSW 5.8 mph - 0.04 in Rain , Thunderstorm Thunderstorms and Rain
11:35 PM 71.6 °F - 71.6 °F 100% 30.12 in 10.0 mi Calm Calm - 0.06 in Rain Light Rain
11:55 PM 71.6 °F - 71.6 °F 100% 30.12 in 7.0 mi North 8.1 mph - 0.07 in Rain Light Rain